[[{"header":{"parameterUnit":"m.s-1","parameterCategory":1,"la1":30.2991,"la2":30.254,"lo1":-89.0895,"lo2":-89.0444,"dy":0.0017,"dx":0.0017,"nx":28,"ny":28,"refTime":"2024-06-26T09:00:00:Z","depth":0,"parameterNumber":2,"parameterNumberName":"U-component_of_WINDS"},"data":[0,0,0,0,0,0,0,0,0,0,0,0,0,0,0,0,0,0,0,0,0,0,0,0,0,0,0,0,0,0,0,0,0,0,0,0,0,0,0,0,0,0,0,0,0,0,0,0,0,0,0,0,0,0,0,0,0,0,4.8951,4.8952,0,4.9078,4.9079,4.908,4.8998,4.8994,4.899,4.8987,4.9118,4.9125,4.9132,0,0,0,0,0,0,0,0,0,0,0,0,0,4.8637,4.8644,4.8951,4.8952,4.8954,4.9077,4.9079,4.9081,4.8998,4.8994,4.8989,4.8985,4.9116,4.9124,4.9133,0,0,0,0,0,0,0,0,0,0,0,0,0,4.877,4.8646,4.8951,4.8928,4.8927,4.9077,4.9079,4.9081,4.8999,4.8994,4.8988,4.8983,4.9113,4.9123,4.9134,4.9314,0,0,4.9166,4.9171,0,0,0,0,0,0,0,0,4.8762,4.8781,4.893,4.893,4.8929,4.9016,4.9017,4.9159,4.9001,4.8972,4.8986,4.898,4.9089,4.9101,4.9138,4.932,4.9326,4.9167,4.9174,4.9178,4.9181,0,0,0,0,0,0,0,4.8753,4.8776,4.9001,4.8932,4.8932,4.8911,4.8924,4.9043,4.9061,4.8974,4.8968,4.8984,4.9088,4.9128,4.914,4.9328,4.9167,4.9176,4.9183,4.9187,4.9661,4.9667,0,0,0,0,0,0,4.8746,4.8768,4.8997,4.9005,4.883,4.8921,4.8935,4.8994,4.906,4.9064,4.8989,4.898,4.9112,4.9128,4.9144,4.9357,4.9178,4.9188,4.9194,4.9655,4.9662,4.9669,0,0,0,0,0,0,4.874,4.8767,4.8992,4.8885,4.8912,4.8933,4.8999,4.8999,4.9039,4.9071,4.9074,4.9027,4.9108,4.9129,4.9271,4.936,4.9193,4.9202,4.9647,4.9657,4.9666,4.9785,0,0,0,0,0,0,4.8731,4.8765,4.8834,4.8887,4.8918,4.9117,4.9005,4.9006,4.9057,4.9047,4.9107,4.9111,4.9105,4.9256,4.9282,4.9372,4.9211,4.9639,4.9652,4.9663,4.9773,4.9798,4.9818,0,0,0,0,0,4.872,4.8864,4.8838,4.8866,4.9005,4.9123,4.914,4.913,4.9065,4.9134,4.9154,4.9109,4.9347,4.9271,4.93,4.9394,4.9634,4.9648,4.9662,4.9763,4.9793,4.9818,0,0,0,0,0,0,4.8822,4.8871,4.8843,4.9008,4.9062,4.9108,4.9195,4.9162,4.9236,4.9223,4.9208,4.9222,4.937,4.9396,4.9312,4.957,4.948,4.95,4.9547,4.9576,4.9598,4.9587,4.922,0,0,0,0,0,4.8864,4.8956,4.8993,4.9135,4.9164,4.9175,4.9226,4.9213,4.9269,4.9291,4.9322,4.9377,4.9464,4.9521,4.9603,4.9777,4.9788,4.9856,4.9878,4.9896,4.9914,5.0005,5.0035,4.9715,4.9715,4.9715,0,0,4.8951,4.8989,4.9048,4.9157,4.9197,4.9291,4.9195,4.93,4.9369,4.9307,4.9442,4.9467,4.9528,4.9685,4.9757,4.9712,5.0005,4.9914,4.9929,4.9936,5.0023,5.0053,5.008,4.9724,4.9723,4.9721,0,0,4.9158,4.9197,4.9318,4.936,4.9421,4.9427,4.9456,4.9508,4.9521,4.9656,4.9611,4.9694,4.9844,4.9888,4.9931,5.0152,5.0113,5.0179,5.0295,5.0384,5.041,5.0432,5.0508,5.0536,5.0196,5.0197,5.0197,0,4.9259,4.9399,4.9385,4.9492,4.9541,4.9487,4.9609,4.9651,4.9736,4.977,4.9719,4.9905,4.9943,5.0108,5.0162,5.0199,5.0231,5.0172,5.0407,5.0429,5.045,5.0523,5.0552,5.0204,5.0203,5.0203,5.0202,0,4.9519,4.9617,4.9708,4.9789,4.9848,4.9963,4.9965,5.0026,5.0008,5.0019,5.0156,5.0199,5.0287,5.0326,5.031,5.049,5.046,5.0409,5.0317,5.0488,5.0556,5.0584,5.0215,5.0212,5.021,5.0208,0,0,4.9795,4.9865,4.9898,4.9934,4.9996,5.0072,5.0183,5.0268,5.032,5.038,5.0472,5.0599,5.0551,5.0599,5.0588,5.0666,5.0835,5.0605,5.0606,5.0644,5.1033,5.1069,5.1102,5.081,5.0815,5.082,5.1027,0,5.0003,5.0196,5.0185,5.0366,5.0455,5.0405,5.0502,5.055,5.0564,5.0641,5.0656,5.0745,5.0676,5.0704,5.078,5.0799,5.0913,5.0784,5.0894,5.0898,5.0879,5.1138,5.1178,5.1371,5.1053,5.1058,5.1061,0,5.0272,5.0339,5.0529,5.0576,5.0613,5.07,5.0775,5.085,5.0904,5.0908,5.096,5.0935,5.1047,5.0953,5.1105,5.1018,5.1062,5.1078,5.1086,5.1094,5.0989,5.1152,5.1433,5.1461,5.1104,5.11,5.1097,0,5.0451,5.0589,5.072,5.0752,5.0811,5.0872,5.09,5.0947,5.0998,5.1065,5.1097,5.1176,5.1219,5.1281,5.1277,5.121,5.1431,5.1338,5.1437,5.1437,5.1485,5.1481,5.1775,5.1517,5.1516,5.1516,5.1515,0,5.0684,5.0801,5.08,5.0881,5.101,5.0996,5.1125,5.1145,5.1188,5.1271,5.1233,5.1311,5.1303,5.1382,5.138,5.1505,5.1526,5.1531,5.1529,5.1534,5.1533,5.1561,5.1547,5.1523,5.1522,5.152,5.1519,0,5.0905,5.091,5.1048,5.1091,5.1105,5.1198,5.1235,5.131,5.1319,5.1425,5.1448,5.1464,5.1554,5.1557,5.1662,5.166,5.1812,5.1796,5.1794,5.179,5.1887,5.1878,5.2209,5.225,5.1967,5.197,5.1972,0,5.1052,5.1141,5.1193,5.1245,5.1276,5.1361,5.1412,5.1401,5.1456,5.1522,5.1589,5.1676,5.1745,5.1892,5.1912,5.1991,5.1976,5.2086,5.1987,5.1988,5.1975,5.1969,5.1976,5.2105,5.2108,5.2111,5.2113,0,5.1313,5.131,5.1385,5.146,5.1522,5.1581,5.1636,5.168,5.1676,5.1739,5.1831,5.1884,5.1989,5.2075,5.2152,5.2179,5.2146,5.2144,5.217,5.2175,5.2169,5.2172,5.1844,5.2136,5.2134,5.2132,5.2131,5.213,5.15,5.1575,5.1623,5.1707,5.1747,5.1798,5.187,5.1888,5.1963,5.2047,5.2037,5.2138,5.2187,5.2286,5.232,5.2399,5.2361,5.24,5.2409,5.2419,5.2428,5.2158,5.2413,5.2412,5.2412,5.2411,5.2411,0,5.1756,5.1784,5.1861,5.1938,5.2003,5.1965,5.2023,5.208,5.2169,5.2218,5.2285,5.2389,5.2472,5.2498,5.2578,5.2636,5.2622,5.2657,5.2652,5.2658,5.2459,5.2427,5.2667,5.2667,5.2667,5.2666,5.2666,5.2666,5.1897,5.2022,5.2024,5.2168,5.2194,5.2292,5.2328,5.2375,5.2413,5.2531,5.2599,5.2615,5.2654,5.2736,5.2809,5.2815,5.2845,5.2886,5.2885,5.2698,5.2673,5.2648,5.2618,5.2894,5.2894,5.3078,5.3079,5.3081]},{"header":{"parameterUnit":"m.s-1","parameterCategory":1,"la1":30.2991,"la2":30.254,"lo1":-89.0895,"lo2":-89.0444,"dy":0.0017,"dx":0.0017,"nx":28,"ny":28,"refTime":"2024-06-26T09:00:00:Z","depth":0,"parameterNumber":3,"parameterNumberName":"V-component_of_WINDS"},"data":[0,0,0,0,0,0,0,0,0,0,0,0,0,0,0,0,0,0,0,0,0,0,0,0,0,0,0,0,0,0,0,0,0,0,0,0,0,0,0,0,0,0,0,0,0,0,0,0,0,0,0,0,0,0,0,0,0,0,5.526,5.5261,0,5.5366,5.5367,5.5368,5.5311,5.5308,5.5306,5.5303,5.5409,5.5414,5.542,0,0,0,0,0,0,0,0,0,0,0,0,0,5.5004,5.5009,5.526,5.5261,5.5263,5.5366,5.5367,5.5369,5.5312,5.5308,5.5305,5.5301,5.5407,5.5414,5.542,0,0,0,0,0,0,0,0,0,0,0,0,0,5.5113,5.5011,5.526,5.5247,5.5247,5.5366,5.5367,5.5369,5.5312,5.5308,5.5304,5.53,5.5405,5.5413,5.5421,5.5558,0,0,5.5446,5.545,0,0,0,0,0,0,0,0,5.5107,5.5123,5.5247,5.5248,5.5248,5.5321,5.5316,5.5432,5.5314,5.5287,5.5303,5.5298,5.5383,5.5393,5.5422,5.5563,5.5568,5.5447,5.5452,5.5456,5.5458,0,0,0,0,0,0,0,5.51,5.5118,5.5302,5.5249,5.525,5.5234,5.5245,5.5338,5.5358,5.5289,5.5285,5.5299,5.5382,5.5414,5.5424,5.5569,5.5447,5.5454,5.5459,5.5462,5.5825,5.5829,0,0,0,0,0,0,5.5093,5.5112,5.5298,5.5305,5.5166,5.5242,5.5254,5.5302,5.5357,5.5361,5.5302,5.5296,5.5402,5.5415,5.5428,5.5589,5.5455,5.5463,5.5468,5.582,5.5826,5.5831,0,0,0,0,0,0,5.5088,5.5111,5.5294,5.5208,5.523,5.5251,5.5305,5.5306,5.5338,5.5367,5.537,5.5332,5.5399,5.5416,5.5526,5.5592,5.5467,5.5474,5.5815,5.5822,5.5828,5.5916,0,0,0,0,0,0,5.5081,5.5109,5.5163,5.5209,5.5235,5.5392,5.5309,5.5311,5.5353,5.5345,5.5395,5.5399,5.5397,5.5514,5.5534,5.5602,5.5481,5.5809,5.5818,5.5826,5.5907,5.5925,5.594,0,0,0,0,0,5.5072,5.5183,5.5166,5.5188,5.5302,5.5396,5.541,5.5407,5.5359,5.5411,5.5429,5.5397,5.5582,5.5525,5.5548,5.5619,5.5804,5.5815,5.5825,5.59,5.5922,5.594,0,0,0,0,0,0,5.5144,5.5189,5.517,5.53,5.5344,5.5386,5.5453,5.5431,5.5489,5.548,5.5472,5.5483,5.5597,5.5619,5.5555,5.5753,5.5685,5.5701,5.5734,5.5755,5.5772,5.5763,5.5488,0,0,0,0,0,5.5174,5.5248,5.5283,5.5394,5.5418,5.5432,5.5473,5.5466,5.5511,5.553,5.5556,5.5601,5.5668,5.5713,5.5777,5.591,5.5919,5.597,5.5986,5.6,5.6013,5.6082,5.6105,5.5865,5.5865,5.5865,0,0,5.5239,5.5273,5.532,5.5409,5.5443,5.5518,5.5448,5.5531,5.5585,5.5542,5.5647,5.5668,5.5717,5.5838,5.5892,5.5859,5.6081,5.6013,5.6024,5.603,5.6095,5.6118,5.6138,5.5872,5.5871,5.587,0,0,5.5394,5.5428,5.5523,5.5558,5.561,5.5618,5.5641,5.5686,5.5698,5.5804,5.5772,5.5836,5.5954,5.5989,5.6023,5.6189,5.6161,5.6211,5.6297,5.6365,5.6383,5.64,5.6457,5.6478,5.6224,5.6224,5.6224,0,5.5467,5.558,5.5574,5.5659,5.5698,5.5663,5.5757,5.5792,5.5862,5.5889,5.5851,5.5997,5.6028,5.6155,5.6196,5.6225,5.6249,5.6204,5.6381,5.6398,5.6413,5.6468,5.6489,5.6229,5.6229,5.6228,5.6228,0,5.5666,5.5744,5.5814,5.5883,5.593,5.602,5.6026,5.6075,5.6063,5.6075,5.6181,5.6216,5.6286,5.6316,5.6306,5.6442,5.6419,5.6382,5.6314,5.6442,5.6492,5.6513,5.6237,5.6235,5.6234,5.6232,0,0,5.5869,5.5933,5.5959,5.5988,5.6042,5.6102,5.6189,5.6257,5.6297,5.6347,5.6418,5.6517,5.6482,5.652,5.6514,5.6573,5.67,5.6528,5.6529,5.6557,5.6849,5.6875,5.69,5.6682,5.6686,5.6689,5.6844,0,5.6026,5.6179,5.6176,5.6317,5.6387,5.6354,5.6429,5.6469,5.6482,5.6543,5.6557,5.6626,5.6576,5.6598,5.6656,5.6672,5.6758,5.6661,5.6746,5.6749,5.6733,5.6927,5.6956,5.71,5.6864,5.6867,5.687,0,5.623,5.6286,5.6434,5.6476,5.6505,5.6573,5.6634,5.6693,5.6737,5.6742,5.6784,5.6768,5.6853,5.6784,5.6901,5.6835,5.6869,5.6882,5.6888,5.6894,5.6816,5.6937,5.7147,5.7167,5.6901,5.6899,5.6897,0,5.6361,5.6473,5.6576,5.6602,5.6654,5.6702,5.6725,5.6765,5.6806,5.6859,5.6885,5.6947,5.6981,5.7029,5.7029,5.6979,5.7146,5.7077,5.7151,5.7151,5.7187,5.7184,5.7403,5.7212,5.7212,5.7211,5.7211,0,5.6536,5.6627,5.6635,5.6698,5.6798,5.6793,5.6892,5.6911,5.6946,5.7011,5.6986,5.7046,5.7043,5.7105,5.7105,5.72,5.7216,5.7221,5.722,5.7223,5.7222,5.7244,5.7233,5.7217,5.7216,5.7215,5.7214,0,5.6699,5.6708,5.6817,5.6856,5.6868,5.694,5.6973,5.7032,5.7042,5.7124,5.7143,5.7159,5.7229,5.7234,5.7316,5.7316,5.7431,5.7419,5.7416,5.7413,5.7486,5.7478,5.7726,5.7757,5.7547,5.7549,5.755,0,5.6809,5.6878,5.6925,5.6967,5.6993,5.7061,5.7102,5.7099,5.7142,5.7196,5.7248,5.7316,5.737,5.7484,5.7502,5.7563,5.7552,5.7634,5.7561,5.7561,5.7551,5.7546,5.7552,5.7648,5.7651,5.7652,5.7654,0,5.7003,5.7004,5.7064,5.7126,5.7176,5.7224,5.7269,5.7304,5.7306,5.7356,5.7428,5.747,5.7553,5.762,5.768,5.7702,5.7678,5.7677,5.7697,5.77,5.7694,5.7696,5.7453,5.7671,5.7669,5.7668,5.7667,5.7667,5.7142,5.7201,5.7242,5.731,5.7343,5.7386,5.7442,5.7459,5.7519,5.7587,5.7581,5.766,5.77,5.7778,5.7805,5.7865,5.7837,5.7867,5.7874,5.7881,5.7887,5.7686,5.7876,5.7876,5.7875,5.7875,5.7875,0,5.7332,5.7357,5.7419,5.7483,5.7536,5.7509,5.7557,5.7603,5.7673,5.7713,5.7766,5.7847,5.7912,5.7934,5.7997,5.804,5.8031,5.8057,5.8053,5.8058,5.791,5.7886,5.8063,5.8063,5.8063,5.8063,5.8063,5.8063,5.7437,5.7535,5.7541,5.7654,5.7678,5.7756,5.7785,5.7823,5.7854,5.7947,5.8,5.8015,5.8047,5.8111,5.8168,5.8173,5.8196,5.8226,5.8226,5.8087,5.8068,5.805,5.8027,5.8232,5.8232,5.8368,5.837,5.8371]}]]